Weather in Bishkek

Kyrgyzstan     42°52′47″N   74°36′51″E
temp.,
°C
wind,
m/s
gust,
m/s
humid.,
%
clouds,
%
prec.,
mm/h
press.,
hPa
HPBL,
m
6 march, sat
sat600:00+1e33790 0.0 102953
03:000ene22710 0.0 102622
06:000ene12693 0.0 102522
09:00+2ne1261100 0.0 102267
12:00+8ne2341100 0.0 1017368
15:00+14n333012 0.0 1013673
18:00+10nnw234856 0.0 101394
21:00+6w2367100 0.0 101542
7 march, sun
sun700:00+6wnw1169100 0.0 101522
03:00+4w2375100 0.0 101534
06:00+4wsw1272100 0.0 101825
09:00+4wsw1169100 0.0 1019104
12:00+7wnw2255100 0.0 1019758
15:00+9wnw3252100 0.0 10191059
18:00+8wnw3364100 0.1 1019629
21:00+5wnw1188100 0.0 102142
8 march, mon
mon800:00+4n019180 0.0 102022
03:00+3nw11932 0.0 101922
06:00+3ese119245 0.0 102022
09:00+4e1182100 0.0 102191
12:00+9nne115961 0.0 1020586
15:00+11nnw224593 0.0 10201006
18:00+11nnw324995 0.0 1021980
21:00+8n236899 0.0 102463
9 march, tue
tue900:00+7e0270100 0.0 102323
03:00+5e227468 0.0 102222
06:00+5e227282 0.0 102123
09:00+6ene2364100 0.0 102096
12:00+12ne334398 0.0 1017380
15:00+15n333385 0.0 1014738
18:00+13nnw234593 0.0 101496
21:00+10nne1255100 0.0 101422
10 march, wed
wed1000:00+9ene2360100 0.0 101323
03:00+7wsw0164100 0.0 101022
06:00+8w2262100 0.0 101123
09:00+9ese1159100 0.0 101267
12:00+14e223879 0.0 1010617
15:00+16nw3336100 0.0 10091261
18:00+14nw2347100 0.1 1012169
21:00+8nw6886100 2.4 1016691